Location: Trebic
(49.2170°N, 15.8830°E)
Time: 20:46:03
(UTC+02:00)

Transit 4A - Pass Details

Date: 31 August 2019
Orbit: 866 x 978 km, 66.8° (Epoch: 16 October)

Event Time Altitude Azimuth Distance (km) Brightness Sun altitude
Rises 00:47:34 0° 324° (NW) 3,646 11.8 -31.9°
Reaches altitude 10° 00:50:15 10° 330° (NNW) 2,683 11.0 -31.9°
Maximum altitude 00:56:18 49° 45° (NE) 1,181 8.6 -31.9°
Enters shadow 00:56:54 48° 63° (ENE) 1,202 8.5 -31.9°
Drops below altitude 10° 01:02:09 10° 120° (ESE) 2,594 - -31.9°
Sets 01:04:43 0° 126° (SE) 3,516 - -31.9°
